GW3396 Weather Reports


Display with metric or nautical units.
time (UTC)temp
F
wind
direction
speed
MPH
gust
MPH
rain 1hr
in
rain 24hr
in
rain mn
in
humidity
%
barometer
mb
20260504081506 41 224 0.0 1.0 0.00 0.00 0.00 89 1017.5
20260504044526 46 224 0.0 2.0 0.00 0.00 0.00 77 1018.5
20260504043013 47 224 0.0 0.0 0.00 0.00 0.00 76 1018.6
20260504041524 49 224 0.0 0.0 0.00 0.00 0.00 71 1018.5
20260504040019 50 224 0.0 2.0 0.00 0.00 0.00 67 1018.6
20260504034522 51 224 0.0 2.0 0.00 0.00 0.00 66 1018.8
20260504033024 51 222 1.0 3.0 0.00 0.00 0.00 63 1018.8
20260504031512 52 255 0.0 3.0 0.00 0.00 0.00 60 1018.8
20260504030021 52 255 1.0 3.0 0.00 0.00 0.00 60 1018.8
20260504024524 52 240 1.0 3.0 0.00 0.00 0.00 61 1018.8
20260504023025 53 264 0.0 2.0 0.00 0.00 0.00 59 1018.8
20260504021510 53 264 0.0 2.0 0.00 0.00 0.00 57 1018.8
20260504020015 53 258 0.0 3.0 0.00 0.00 0.00 58 1018.6
20260504014526 54 247 1.0 3.0 0.00 0.00 0.00 57 1018.5
20260504013021 55 248 0.0 2.0 0.00 0.00 0.00 59 1018.3
20260504011505 56 248 0.0 3.0 0.00 0.00 0.00 56 1018.2
20260504010009 57 230 0.0 2.0 0.00 0.00 0.00 55 1018.2
20260504004518 58 238 0.0 3.0 0.00 0.00 0.00 55 1018.1
20260504003018 60 233 0.0 4.0 0.00 0.00 0.00 52 1018.0
20260504001525 61 257 0.0 3.0 0.00 0.00 0.00 50 1018.0
20260504000007 63 273 0.0 3.0 0.00 0.00 0.00 48 1017.8
20260503234512 64 205 1.0 3.0 0.00 0.00 0.00 47 1018.0
20260503233019 64 256 2.0 6.0 0.00 0.00 0.00 45 1018.1
20260503231520 65 257 2.0 7.0 0.00 0.00 0.00 45 1018.1
20260503230023 65 250 2.0 7.0 0.00 0.00 0.00 45 1018.1
20260503224526 64 279 3.0 7.0 0.00 0.00 0.00 43 1018.2
20260503223016 65 254 2.0 7.0 0.00 0.00 0.00 43 1018.3
20260503221526 65 261 4.0 12.0 0.00 0.00 0.00 44 1018.3
20260503220024 65 314 3.0 8.0 0.00 0.00 0.00 44 1018.4
20260503214525 65 274 2.0 9.0 0.00 0.00 0.00 44 1018.5
20260503213027 64 258 2.0 7.0 0.00 0.00 0.00 45 1018.7
20260503211517 64 291 4.0 8.0 0.00 0.00 0.00 45 1018.9
20260503210020 65 297 3.0 10.0 0.00 0.00 0.00 44 1019.2
20260503204526 65 244 4.0 8.0 0.00 0.00 0.00 44 1019.3
20260503203026 65 314 0.0 10.0 0.00 0.00 0.00 40 1019.4
20260503201526 64 220 3.0 9.0 0.00 0.00 0.00 41 1019.6
20260503200006 65 298 2.0 9.0 0.00 0.00 0.00 42 1019.7
20260503194504 64 205 2.0 9.0 0.00 0.00 0.00 47 1020.1
20260503193005 63 157 2.0 8.0 0.00 0.00 0.00 41 1020.2
20260503191508 63 250 4.0 7.0 0.00 0.00 0.00 44 1020.4
20260503190007 63 213 2.0 9.0 0.00 0.00 0.00 48 1020.5
20260503184513 62 291 2.0 7.0 0.00 0.00 0.00 52 1020.8
20260503183011 62 270 4.0 10.0 0.00 0.00 0.00 54 1020.9
20260503181508 61 321 4.0 8.0 0.00 0.00 0.00 52 1020.9
20260503180011 61 221 2.0 8.0 0.00 0.00 0.00 49 1021.0
20260503174508 60 221 2.0 7.0 0.00 0.00 0.00 52 1021.2
20260503173010 59 11 5.0 9.0 0.00 0.00 0.00 50 1021.4
20260503171508 59 355 2.0 5.0 0.00 0.00 0.00 51 1021.7